Content
SEND FEEDBACK

Daily
Averages
Monthly
Summary
United Kingdom

STORNOWAY, SCOTLAND


Home > Europe > United Kingdom > Scotland
Elevation: 43 feet     Latitude: 58 13N     Longitude: 006 19W

WEATHER
 
SELECT A DAY
Number of Records: 242,005;   Date Range: 7/1/96 - 9/29/14
 
SHARE

PRINT THIS DATA

[ ← Previous Day ]
WEATHER ALMANAC - NOVEMBER 1, 2013
[ Next Day → ]
[ °C ]   °F
Weather ElementAverageHighLow
Temperature36 °F50 °F (9:20 am) (12:20 am)
Dewpoint31.6 °F44.6 °F (6:20 am) (7:00 pm)
Humidity79.5 %87 % (6:20 am)60 % (3:00 pm)
Barometer29.33 in29.42 in (9:50 pm)29.21 in (4:50 am)
Wind Speed19.2 mph33.4 mph (4:20 am)
Wind Gust54.1 mph (4:20 am)
Weather ElementAverage
Visibility6.8 mi
Wind DirectionWSW (235.7 °)

Weather ElementTotal
Precipitation---
Heating Degree Days40 (Base 65)
Averaged from 54 records on November 1, 2013
WEATHER CONDITIONS BREAKOUT
WIND DIRECTION BREAKOUT
WEATHER BY HOUR - NOVEMBER 1, 2013
[ °C ]   °F
Local TimeTemperatureDewpointHumidityBarometerVisibilityWind DirectionWind SpeedGust SpeedPrecipitationEventsConditions
12:20 AM0.0 °F0.0 °F29.30 in6.2 miSW (230°)19.6 mphScattered Clouds
12:50 AM0.0 °F0.0 °F29.30 in6.2 miSW (220°)15.0 mphPartly Cloudy
1:20 AM0.0 °F0.0 °F29.30 in6.2 miSSW (210°)13.8 mph
1:50 AM0.0 °F0.0 °F29.30 in6.2 miSW (220°)20.7 mph34.5 mphPartly Cloudy
2:20 AM0.0 °F0.0 °F29.30 in6.2 miSW (220°)19.6 mphPartly Cloudy
2:50 AM0.0 °F0.0 °F29.27 in6.2 miSW (220°)20.7 mph
3:00 AM47.0 °F40.0 °F71 %29.28 in10.0 miSW (220°)25.3 mphScattered Clouds
3:20 AM0.0 °F0.0 °F29.27 in6.2 miSW (220°)21.9 mph35.7 mphPartly Cloudy
3:50 AM0.0 °F0.0 °F29.24 in6.2 miSSW (210°)20.7 mph33.4 mphPartly Cloudy
4:20 AM0.0 °F0.0 °F29.24 in2.2 miSW (220°)33.4 mph54.1 mphScattered Clouds
4:50 AM0.0 °F0.0 °F29.21 in6.2 miSW (220°)23.0 mphMostly Cloudy
5:20 AM0.0 °F0.0 °F29.21 in6.2 miSW (220°)19.6 mphScattered Clouds
5:50 AM0.0 °F0.0 °F29.24 in6.2 miWSW (240°)21.9 mph38.0 mphPartly Cloudy
6:00 AM47.0 °F42.0 °F79 %29.23 in9.0 miWSW (240°)23.0 mphRainRain
6:20 AM48.2 °F44.6 °F87 %29.24 in6.2 miWSW (240°)27.6 mph39.1 mphRainLight Rain Showers
6:50 AM48.2 °F44.6 °F87 %29.27 in6.2 miWSW (240°)21.9 mphScattered Clouds
7:20 AM48.2 °F44.6 °F87 %29.27 in6.2 miWSW (240°)24.2 mphScattered Clouds
7:50 AM48.2 °F44.6 °F87 %29.27 in6.2 miWSW (240°)25.3 mph36.8 mphRainLight Rain Showers
8:20 AM48.2 °F44.6 °F87 %29.27 in6.2 miWSW (240°)25.3 mphScattered Clouds
8:50 AM48.2 °F44.6 °F87 %29.30 in6.2 miWSW (240°)24.2 mphScattered Clouds
9:20 AM50.0 °F42.8 °F76 %29.30 in6.2 miWSW (250°)21.9 mphMostly Cloudy
9:50 AM50.0 °F44.6 °F82 %29.33 in6.2 miWSW (240°)20.7 mphScattered Clouds
10:20 AM50.0 °F42.8 °F76 %29.33 in6.2 miWSW (240°)26.5 mph39.1 mphScattered Clouds
10:50 AM50.0 °F42.8 °F76 %29.33 in6.2 miWSW (240°)20.7 mphScattered Clouds
11:20 AM48.2 °F42.8 °F82 %29.33 in6.2 miWSW (250°)24.2 mph35.7 mphRainLight Rain Showers
11:50 AM48.2 °F42.8 °F82 %29.33 in6.2 miWSW (240°)21.9 mphScattered Clouds
12:00 PM47.0 °F39.0 °F64 %29.34 in13.0 miWSW (240°)20.7 mphRainRain
12:20 PM50.0 °F42.8 °F76 %29.36 in6.2 miWSW (240°)19.6 mphMostly Cloudy
12:50 PM50.0 °F42.8 °F76 %29.36 in6.2 miSW (230°)21.9 mphScattered Clouds
1:20 PM50.0 °F42.8 °F76 %29.36 in6.2 miWSW (250°)25.3 mphScattered Clouds
1:50 PM50.0 °F42.8 °F76 %29.36 in6.2 miWSW (240°)21.9 mphScattered Clouds
2:20 PM50.0 °F42.8 °F76 %29.36 in6.2 miWSW (250°)15.0 mphScattered Clouds
2:50 PM48.2 °F41.0 °F76 %29.36 in6.2 miWSW (240°)16.1 mphScattered Clouds
3:00 PM47.0 °F38.0 °F60 %29.36 in19.0 miWSW (240°)16.1 mphScattered Clouds
3:20 PM48.2 °F39.2 °F71 %29.36 in6.2 miSW (230°)10.4 mphScattered Clouds
3:50 PM48.2 °F39.2 °F71 %29.36 in6.2 miSW (230°)17.3 mphScattered Clouds
4:20 PM44.6 °F39.2 °F81 %29.36 in6.2 miSW (230°)13.8 mphScattered Clouds
4:50 PM44.6 °F41.0 °F87 %29.36 in6.2 miSW (230°)11.5 mphScattered Clouds
5:20 PM44.6 °F41.0 °F87 %29.36 in6.2 miWSW (250°)10.4 mphScattered Clouds
5:50 PM44.6 °F39.2 °F81 %29.36 in6.2 miWSW (240°)19.6 mphScattered Clouds
6:00 PM43.0 °F38.0 °F77 %29.37 in13.0 miWSW (240°)17.3 mphRainLight Rain Showers
6:20 PM44.6 °F39.2 °F81 %29.36 in6.2 miSW (230°)15.0 mphScattered Clouds
6:50 PM44.6 °F39.2 °F81 %29.36 in6.2 miWSW (240°)18.4 mph38.0 mphRainLight Rain Showers
7:20 PM44.6 °F39.2 °F81 %29.39 in6.2 miWSW (250°)15.0 mphScattered Clouds
7:50 PM42.8 °F37.4 °F81 %29.39 in6.2 miWSW (240°)16.1 mph
8:20 PM42.8 °F37.4 °F81 %29.39 in6.2 miWSW (250°)11.5 mph
8:50 PM42.8 °F37.4 °F81 %29.39 in6.2 miWSW (250°)18.4 mphPartly Cloudy
9:00 PM43.0 °F36.0 °F69 %29.39 in10.0 miWSW (250°)17.3 mphRainLight Rain Showers
9:20 PM41.0 °F37.4 °F87 %29.39 in6.2 miSW (230°)13.8 mph
9:50 PM42.8 °F37.4 °F81 %29.42 in6.2 miSW (230°)16.1 mph27.6 mph
10:20 PM41.0 °F37.4 °F87 %29.39 in6.2 miWSW (240°)13.8 mphPartly Cloudy
10:50 PM41.0 °F37.4 °F87 %29.42 in6.2 miWSW (240°)13.8 mphPartly Cloudy
11:20 PM42.8 °F37.4 °F81 %29.39 in6.2 miWSW (240°)17.3 mphPartly Cloudy
11:50 PM42.8 °F37.4 °F81 %29.42 in6.2 miWSW (250°)12.7 mphPartly Cloudy
Hourly data recorded from EGPO, located miles away from Stornoway, Scotland







STORIES FROM OUR PARTNERS